This is the latest recevied weather packets stored in our database for station/object WD9U. If no packets are shown the sender has not sent any weather packets the latest 10 day(s).
| Time | Temp. | Humidity | Pressure | Rain* | Wind** | Luminosity | Snow |
|---|---|---|---|---|---|---|---|
| 1778023148 | 7.22° C | 41% | 1010.9 hPa | 0 mm | - | 212 W/m² | - |
| 1778022788 | 7.22° C | 43% | 1011 hPa | 0 mm | - | 195 W/m² | - |
| 1778022428 | 7.22° C | 40% | 1011 hPa | 0 mm | - | 241 W/m² | - |
| 1778022320 | 7.22° C | 40% | 1011 hPa | 0 mm | - | 296 W/m² | - |
| 1778022068 | 7.78° C | 41% | 1010.9 hPa | 0 mm | - | 362 W/m² | - |
| 1778021708 | 7.78° C | 39% | 1010.9 hPa | 0 mm | - | 331 W/m² | - |
| 1778021348 | 7.78° C | 42% | 1011.1 hPa | 0 mm | - | 546 W/m² | - |
| 1778021121 | 7.78° C | 41% | 1010.9 hPa | 0 mm | - | 474 W/m² | - |
| 1778020988 | 7.78° C | 41% | 1011 hPa | 0 mm | - | 458 W/m² | - |
| 1778020628 | 7.78° C | 41% | 1010.9 hPa | 0 mm | - | 609 W/m² | - |
| 1778020268 | 7.78° C | 40% | 1010.9 hPa | 0 mm | - | 517 W/m² | - |
| 1778019917 | 7.22° C | 42% | 1010.9 hPa | 0 mm | - | 405 W/m² | - |
| 1778019557 | 7.22° C | 43% | 1010.8 hPa | 0 mm | - | 360 W/m² | - |
| 1778019197 | 6.67° C | 42% | 1010.8 hPa | 0 mm | - | 260 W/m² | - |
| 1778018836 | 7.22° C | 43% | 1010.8 hPa | 0 mm | - | 350 W/m² | - |
| 1778018719 | 6.67° C | 44% | 1010.7 hPa | 0 mm | - | 538 W/m² | - |
| 1778018477 | 6.67° C | 43% | 1010.7 hPa | 0 mm | - | 578 W/m² | - |
| 1778018117 | 6.67° C | 42% | 1010.7 hPa | 0 mm | - | 260 W/m² | - |
| 1778017756 | 6.67° C | 42% | 1010.8 hPa | 0 mm | - | 293 W/m² | - |
| 1778017519 | 6.67° C | 43% | 1010.7 hPa | 0 mm | - | 296 W/m² | - |
| 1778017396 | 6.67° C | 42% | 1010.7 hPa | 0 mm | - | 286 W/m² | - |
| 1778017036 | 6.67° C | 43% | 1010.7 hPa | 0 mm | - | 288 W/m² | - |
| 1778016676 | 6.67° C | 42% | 1010.8 hPa | 0 mm | - | 384 W/m² | - |
| 1778016316 | 6.67° C | 42% | 1010.7 hPa | 0 mm | - | 312 W/m² | - |
| 1778015956 | 6.67° C | 43% | 1010.6 hPa | 0 mm | - | 331 W/m² | - |
* Rain latest hour (hover to see other rain measurements)
** Current wind speed in m/s (hover to see current wind gust speed)